<?xml version="1.0"?>
<gpx xmlns="http://www.topografix.com/GPX/1/1" xmlns:xsi="http://www.w3.org/2001/XMLSchema-instance" version="1.1" creator="GPX RubyGem 1.0.0 -- http://dougfales.github.io/gpx/" xsi:schemaLocation="http://www.topografix.com/GPX/1/1 http://www.topografix.com/GPX/1/1/gpx.xsd">
  <metadata>
    <name/>
    <time>2026-05-10T00:28:00+00:00</time>
    <bound minlat="90.0" minlon="180.0" maxlat="-90.0" maxlon="-180.0"/>
  </metadata>
  <trk>
    <name/>
    <trkseg>
      <trkpt lat="50.736301" lon="7.756006">
        <time>1970-01-01T00:00:00+00:00</time>
        <ele>303.0</ele>
      </trkpt>
      <trkpt lat="50.736319" lon="7.755864">
        <time>1970-01-01T00:00:00+00:00</time>
        <ele>302.0</ele>
      </trkpt>
      <trkpt lat="50.736353" lon="7.755596">
        <time>1970-01-01T00:00:00+00:00</time>
        <ele>302.0</ele>
      </trkpt>
      <trkpt lat="50.736272" lon="7.755597">
        <time>1970-01-01T00:00:00+00:00</time>
        <ele>302.0</ele>
      </trkpt>
      <trkpt lat="50.736065" lon="7.755654">
        <time>1970-01-01T00:00:00+00:00</time>
        <ele>301.0</ele>
      </trkpt>
      <trkpt lat="50.735966" lon="7.755717">
        <time>1970-01-01T00:00:00+00:00</time>
        <ele>300.0</ele>
      </trkpt>
      <trkpt lat="50.73587" lon="7.755799">
        <time>1970-01-01T00:00:00+00:00</time>
        <ele>299.0</ele>
      </trkpt>
      <trkpt lat="50.735692" lon="7.756045">
        <time>1970-01-01T00:00:00+00:00</time>
        <ele>299.0</ele>
      </trkpt>
      <trkpt lat="50.735571" lon="7.756338">
        <time>1970-01-01T00:00:00+00:00</time>
        <ele>299.0</ele>
      </trkpt>
      <trkpt lat="50.735481" lon="7.756672">
        <time>1970-01-01T00:00:00+00:00</time>
        <ele>302.0</ele>
      </trkpt>
      <trkpt lat="50.735366" lon="7.757012">
        <time>1970-01-01T00:00:00+00:00</time>
        <ele>307.0</ele>
      </trkpt>
      <trkpt lat="50.734607" lon="7.758445">
        <time>1970-01-01T00:00:00+00:00</time>
        <ele>319.0</ele>
      </trkpt>
      <trkpt lat="50.734537" lon="7.758625">
        <time>1970-01-01T00:00:00+00:00</time>
        <ele>318.0</ele>
      </trkpt>
      <trkpt lat="50.734426" lon="7.759048">
        <time>1970-01-01T00:00:00+00:00</time>
        <ele>317.0</ele>
      </trkpt>
      <trkpt lat="50.734254" lon="7.760095">
        <time>1970-01-01T00:00:00+00:00</time>
        <ele>309.0</ele>
      </trkpt>
      <trkpt lat="50.734193" lon="7.760352">
        <time>1970-01-01T00:00:00+00:00</time>
        <ele>307.0</ele>
      </trkpt>
      <trkpt lat="50.734095" lon="7.760593">
        <time>1970-01-01T00:00:00+00:00</time>
        <ele>306.0</ele>
      </trkpt>
      <trkpt lat="50.733962" lon="7.760789">
        <time>1970-01-01T00:00:00+00:00</time>
        <ele>304.0</ele>
      </trkpt>
      <trkpt lat="50.733936" lon="7.760814">
        <time>1970-01-01T00:00:00+00:00</time>
        <ele>304.0</ele>
      </trkpt>
      <trkpt lat="50.733885" lon="7.760865">
        <time>1970-01-01T00:00:00+00:00</time>
        <ele>303.0</ele>
      </trkpt>
      <trkpt lat="50.733716" lon="7.760971">
        <time>1970-01-01T00:00:00+00:00</time>
        <ele>302.0</ele>
      </trkpt>
      <trkpt lat="50.733536" lon="7.761007">
        <time>1970-01-01T00:00:00+00:00</time>
        <ele>302.0</ele>
      </trkpt>
      <trkpt lat="50.733356" lon="7.760973">
        <time>1970-01-01T00:00:00+00:00</time>
        <ele>302.0</ele>
      </trkpt>
      <trkpt lat="50.733187" lon="7.760869">
        <time>1970-01-01T00:00:00+00:00</time>
        <ele>302.0</ele>
      </trkpt>
      <trkpt lat="50.731416" lon="7.759009">
        <time>1970-01-01T00:00:00+00:00</time>
        <ele>299.0</ele>
      </trkpt>
      <trkpt lat="50.731255" lon="7.758864">
        <time>1970-01-01T00:00:00+00:00</time>
        <ele>298.0</ele>
      </trkpt>
      <trkpt lat="50.730548" lon="7.758327">
        <time>1970-01-01T00:00:00+00:00</time>
        <ele>295.0</ele>
      </trkpt>
      <trkpt lat="50.730475" lon="7.758251">
        <time>1970-01-01T00:00:00+00:00</time>
        <ele>295.0</ele>
      </trkpt>
      <trkpt lat="50.730379" lon="7.758103">
        <time>1970-01-01T00:00:00+00:00</time>
        <ele>295.0</ele>
      </trkpt>
      <trkpt lat="50.730285" lon="7.757799">
        <time>1970-01-01T00:00:00+00:00</time>
        <ele>294.0</ele>
      </trkpt>
      <trkpt lat="50.730272" lon="7.75756">
        <time>1970-01-01T00:00:00+00:00</time>
        <ele>292.0</ele>
      </trkpt>
      <trkpt lat="50.730298" lon="7.757108">
        <time>1970-01-01T00:00:00+00:00</time>
        <ele>290.0</ele>
      </trkpt>
      <trkpt lat="50.730297" lon="7.756847">
        <time>1970-01-01T00:00:00+00:00</time>
        <ele>289.0</ele>
      </trkpt>
      <trkpt lat="50.730264" lon="7.756645">
        <time>1970-01-01T00:00:00+00:00</time>
        <ele>287.0</ele>
      </trkpt>
      <trkpt lat="50.730226" lon="7.756533">
        <time>1970-01-01T00:00:00+00:00</time>
        <ele>287.0</ele>
      </trkpt>
      <trkpt lat="50.730149" lon="7.756361">
        <time>1970-01-01T00:00:00+00:00</time>
        <ele>288.0</ele>
      </trkpt>
      <trkpt lat="50.729551" lon="7.755056">
        <time>1970-01-01T00:00:00+00:00</time>
        <ele>289.0</ele>
      </trkpt>
      <trkpt lat="50.729486" lon="7.75477">
        <time>1970-01-01T00:00:00+00:00</time>
        <ele>289.0</ele>
      </trkpt>
      <trkpt lat="50.729436" lon="7.754217">
        <time>1970-01-01T00:00:00+00:00</time>
        <ele>289.0</ele>
      </trkpt>
      <trkpt lat="50.729411" lon="7.754117">
        <time>1970-01-01T00:00:00+00:00</time>
        <ele>289.0</ele>
      </trkpt>
      <trkpt lat="50.729374" lon="7.754025">
        <time>1970-01-01T00:00:00+00:00</time>
        <ele>290.0</ele>
      </trkpt>
      <trkpt lat="50.729341" lon="7.753962">
        <time>1970-01-01T00:00:00+00:00</time>
        <ele>290.0</ele>
      </trkpt>
      <trkpt lat="50.728972" lon="7.753508">
        <time>1970-01-01T00:00:00+00:00</time>
        <ele>292.0</ele>
      </trkpt>
      <trkpt lat="50.72888" lon="7.753439">
        <time>1970-01-01T00:00:00+00:00</time>
        <ele>292.0</ele>
      </trkpt>
      <trkpt lat="50.728841" lon="7.753427">
        <time>1970-01-01T00:00:00+00:00</time>
        <ele>291.0</ele>
      </trkpt>
      <trkpt lat="50.728791" lon="7.753429">
        <time>1970-01-01T00:00:00+00:00</time>
        <ele>291.0</ele>
      </trkpt>
      <trkpt lat="50.728742" lon="7.753443">
        <time>1970-01-01T00:00:00+00:00</time>
        <ele>291.0</ele>
      </trkpt>
      <trkpt lat="50.728343" lon="7.753658">
        <time>1970-01-01T00:00:00+00:00</time>
        <ele>292.0</ele>
      </trkpt>
      <trkpt lat="50.727527" lon="7.754142">
        <time>1970-01-01T00:00:00+00:00</time>
        <ele>302.0</ele>
      </trkpt>
      <trkpt lat="50.727461" lon="7.754192">
        <time>1970-01-01T00:00:00+00:00</time>
        <ele>304.0</ele>
      </trkpt>
      <trkpt lat="50.727461" lon="7.754192">
        <time>1970-01-01T00:00:00+00:00</time>
        <ele>304.0</ele>
      </trkpt>
      <trkpt lat="50.727527" lon="7.754142">
        <time>1970-01-01T00:00:00+00:00</time>
        <ele>302.0</ele>
      </trkpt>
      <trkpt lat="50.728343" lon="7.753658">
        <time>1970-01-01T00:00:00+00:00</time>
        <ele>292.0</ele>
      </trkpt>
      <trkpt lat="50.728742" lon="7.753443">
        <time>1970-01-01T00:00:00+00:00</time>
        <ele>291.0</ele>
      </trkpt>
      <trkpt lat="50.728791" lon="7.753429">
        <time>1970-01-01T00:00:00+00:00</time>
        <ele>291.0</ele>
      </trkpt>
      <trkpt lat="50.728841" lon="7.753427">
        <time>1970-01-01T00:00:00+00:00</time>
        <ele>291.0</ele>
      </trkpt>
      <trkpt lat="50.72888" lon="7.753439">
        <time>1970-01-01T00:00:00+00:00</time>
        <ele>292.0</ele>
      </trkpt>
      <trkpt lat="50.728972" lon="7.753508">
        <time>1970-01-01T00:00:00+00:00</time>
        <ele>292.0</ele>
      </trkpt>
      <trkpt lat="50.729341" lon="7.753962">
        <time>1970-01-01T00:00:00+00:00</time>
        <ele>290.0</ele>
      </trkpt>
      <trkpt lat="50.729374" lon="7.754025">
        <time>1970-01-01T00:00:00+00:00</time>
        <ele>290.0</ele>
      </trkpt>
      <trkpt lat="50.729411" lon="7.754117">
        <time>1970-01-01T00:00:00+00:00</time>
        <ele>289.0</ele>
      </trkpt>
      <trkpt lat="50.729436" lon="7.754217">
        <time>1970-01-01T00:00:00+00:00</time>
        <ele>289.0</ele>
      </trkpt>
      <trkpt lat="50.729486" lon="7.75477">
        <time>1970-01-01T00:00:00+00:00</time>
        <ele>289.0</ele>
      </trkpt>
      <trkpt lat="50.729551" lon="7.755056">
        <time>1970-01-01T00:00:00+00:00</time>
        <ele>289.0</ele>
      </trkpt>
      <trkpt lat="50.730149" lon="7.756361">
        <time>1970-01-01T00:00:00+00:00</time>
        <ele>288.0</ele>
      </trkpt>
      <trkpt lat="50.730226" lon="7.756533">
        <time>1970-01-01T00:00:00+00:00</time>
        <ele>287.0</ele>
      </trkpt>
      <trkpt lat="50.730264" lon="7.756645">
        <time>1970-01-01T00:00:00+00:00</time>
        <ele>287.0</ele>
      </trkpt>
      <trkpt lat="50.730297" lon="7.756847">
        <time>1970-01-01T00:00:00+00:00</time>
        <ele>289.0</ele>
      </trkpt>
      <trkpt lat="50.730298" lon="7.757108">
        <time>1970-01-01T00:00:00+00:00</time>
        <ele>290.0</ele>
      </trkpt>
      <trkpt lat="50.730272" lon="7.75756">
        <time>1970-01-01T00:00:00+00:00</time>
        <ele>292.0</ele>
      </trkpt>
      <trkpt lat="50.730285" lon="7.757799">
        <time>1970-01-01T00:00:00+00:00</time>
        <ele>294.0</ele>
      </trkpt>
      <trkpt lat="50.730379" lon="7.758103">
        <time>1970-01-01T00:00:00+00:00</time>
        <ele>295.0</ele>
      </trkpt>
      <trkpt lat="50.730475" lon="7.758251">
        <time>1970-01-01T00:00:00+00:00</time>
        <ele>295.0</ele>
      </trkpt>
      <trkpt lat="50.730548" lon="7.758327">
        <time>1970-01-01T00:00:00+00:00</time>
        <ele>295.0</ele>
      </trkpt>
      <trkpt lat="50.731255" lon="7.758864">
        <time>1970-01-01T00:00:00+00:00</time>
        <ele>298.0</ele>
      </trkpt>
      <trkpt lat="50.731416" lon="7.759009">
        <time>1970-01-01T00:00:00+00:00</time>
        <ele>299.0</ele>
      </trkpt>
      <trkpt lat="50.733187" lon="7.760869">
        <time>1970-01-01T00:00:00+00:00</time>
        <ele>302.0</ele>
      </trkpt>
      <trkpt lat="50.733356" lon="7.760973">
        <time>1970-01-01T00:00:00+00:00</time>
        <ele>302.0</ele>
      </trkpt>
      <trkpt lat="50.733536" lon="7.761007">
        <time>1970-01-01T00:00:00+00:00</time>
        <ele>302.0</ele>
      </trkpt>
      <trkpt lat="50.733716" lon="7.760971">
        <time>1970-01-01T00:00:00+00:00</time>
        <ele>302.0</ele>
      </trkpt>
      <trkpt lat="50.733885" lon="7.760865">
        <time>1970-01-01T00:00:00+00:00</time>
        <ele>303.0</ele>
      </trkpt>
      <trkpt lat="50.733936" lon="7.760814">
        <time>1970-01-01T00:00:00+00:00</time>
        <ele>304.0</ele>
      </trkpt>
      <trkpt lat="50.733962" lon="7.760789">
        <time>1970-01-01T00:00:00+00:00</time>
        <ele>304.0</ele>
      </trkpt>
      <trkpt lat="50.734095" lon="7.760593">
        <time>1970-01-01T00:00:00+00:00</time>
        <ele>306.0</ele>
      </trkpt>
      <trkpt lat="50.734193" lon="7.760352">
        <time>1970-01-01T00:00:00+00:00</time>
        <ele>307.0</ele>
      </trkpt>
      <trkpt lat="50.734254" lon="7.760095">
        <time>1970-01-01T00:00:00+00:00</time>
        <ele>309.0</ele>
      </trkpt>
      <trkpt lat="50.734426" lon="7.759048">
        <time>1970-01-01T00:00:00+00:00</time>
        <ele>317.0</ele>
      </trkpt>
      <trkpt lat="50.734537" lon="7.758625">
        <time>1970-01-01T00:00:00+00:00</time>
        <ele>318.0</ele>
      </trkpt>
      <trkpt lat="50.734607" lon="7.758445">
        <time>1970-01-01T00:00:00+00:00</time>
        <ele>319.0</ele>
      </trkpt>
      <trkpt lat="50.735366" lon="7.757012">
        <time>1970-01-01T00:00:00+00:00</time>
        <ele>307.0</ele>
      </trkpt>
      <trkpt lat="50.735481" lon="7.756672">
        <time>1970-01-01T00:00:00+00:00</time>
        <ele>302.0</ele>
      </trkpt>
      <trkpt lat="50.735571" lon="7.756338">
        <time>1970-01-01T00:00:00+00:00</time>
        <ele>299.0</ele>
      </trkpt>
      <trkpt lat="50.735692" lon="7.756045">
        <time>1970-01-01T00:00:00+00:00</time>
        <ele>299.0</ele>
      </trkpt>
      <trkpt lat="50.73587" lon="7.755799">
        <time>1970-01-01T00:00:00+00:00</time>
        <ele>299.0</ele>
      </trkpt>
      <trkpt lat="50.735966" lon="7.755717">
        <time>1970-01-01T00:00:00+00:00</time>
        <ele>300.0</ele>
      </trkpt>
      <trkpt lat="50.736065" lon="7.755654">
        <time>1970-01-01T00:00:00+00:00</time>
        <ele>301.0</ele>
      </trkpt>
      <trkpt lat="50.736272" lon="7.755597">
        <time>1970-01-01T00:00:00+00:00</time>
        <ele>302.0</ele>
      </trkpt>
      <trkpt lat="50.736353" lon="7.755596">
        <time>1970-01-01T00:00:00+00:00</time>
        <ele>302.0</ele>
      </trkpt>
      <trkpt lat="50.736319" lon="7.755864">
        <time>1970-01-01T00:00:00+00:00</time>
        <ele>302.0</ele>
      </trkpt>
      <trkpt lat="50.736301" lon="7.756006">
        <time>1970-01-01T00:00:00+00:00</time>
        <ele>303.0</ele>
      </trkpt>
    </trkseg>
  </trk>
</gpx>
